sat.trackr.live / text

‹ back to catalog

2026-027D

NORAD 67749 · 2026-027D

PAYLOAD ACTIVE UNKNOWN

§ Identity

Operator
Country
PRC
Launch date
2026-02-12
Launch site
SCSLA
Launch vehicle
Mass (kg)
RCS (m²)

External: N2YO · Heavens-Above · Gunter

§ Orbital elements

Epoch: 2026-09-20T06:09:40.415328Z

Period
94.67 min
Inclination
97.5172°
Eccentricity
0.0008513
Mean motion
15.21078552 rev/d
Perigee alt
496.7 km
Apogee alt
508.4 km
Semi-major
6,880.7 km
B*
2.3687e-4
RAAN
31.1883°
Arg perigee
249.2688°
Mean anomaly
110.7635°
Rev number
3,336

§ Raw data

2026-027D1 67749U 26027D   26263.25671777  .00005198  00000+0  23687-3 0  99922 67749  97.5172  31.1883 0008513 249.2688 110.7635 15.21078552 33360

JSON: /api/v1/satellites/67749 · /tle

For live sub-satellite position, see the globe view (requires WebGL).

§ Visibility from observer

Set your observer location to see the next 7 days of passes ≥ 10°. The values pass through the URL so the page stays shareable.

No JS? Fill the form by hand. The geolocation button needs JavaScript.